Вернуться в каталог

STARLINK-11725

АктивенСвязьVLEO
NORAD 64125·PAYLOAD·🇺🇸 United States

Запущен May 24, 2025 с Cape Canaveral Space Force Station

Loading…

Ближайшие Пролёты (ближайшие 24 часа)

TLE

СвежийSource: CelesTrak SupGP

Эпоха: Sep 15, 2026, 03:59 UTC

1 64125C 25111C   26258.16645833 -.00017772  00000+0 -13796-3 0  2589
2 64125  43.0005 271.8402 0001425 258.5261 253.2244 15.70861791    15

Отслеживайте STARLINK-11725 в реальном времени с AllMySat

Download on the App Store